Terug naar catalogus

SL-14 DEB

ActiefPO
NORAD 45273·DEBRIS·🇷🇺 Russia

Gelanceerd Aug 15, 1991 vanaf Plesetsk Cosmodrome

Loading…

Volgende Passages (komende 24 uur)

TLE

VersSource: Space-Track

Epoch: Sep 13, 2026, 17:12 UTC

1 45273U 91056K   26256.71687348  .00001277  00000-0  19697-2 0  9998
2 45273  82.5672 356.7126 0113668 257.7804 101.0587 13.48147848322851

Volg SL-14 DEB in realtime met AllMySat

Download on the App Store